Skip Page Navigation
NASA JPL Caltech
NASA Logo - Jet Propulsion Laboratory + View the NASA Portal
+ Near-Earth Object (NEO) Program
Search JPL
JPL Home Earth Solar System Stars & Galaxies Technology
JPL Solar System Dynamics
BODIES ORBITS EPHEMERIDES TOOLS PHYSICAL DATA DISCOVERY FAQ SITE MAP
JPL Small-Body Database Browser
Search: [ help ]  
73511 Lovas (2002 YD3)
Classification: Main-belt Asteroid          SPK-ID: 2073511
Ephemeris | Orbit Diagram | Orbital Elements | Physical Parameters | Discovery Circumstances ]

[ show orbit diagram ]
Orbital Elements at Epoch 2456400.5 (2013-Apr-18.0) TDB
Reference: MPO250855 (heliocentric ecliptic J2000)
 Element Value Uncertainty (1-sigma)   Units 
e 0.0916562 n/a  
a 3.1380820 n/a AU
q 2.8504573 n/a AU
i 15.94285 n/a deg
node 103.97149 n/a deg
peri 184.29002 n/a deg
M 125.31080 n/a deg
tp 2455693.7255045
(2011-May-12.22550450)
n/a JED
period 2030.4620062
5.56
n/a
n/a
d
yr
n 0.17729955 n/a deg/d
Q 3.4257067 n/a AU
  Orbit Determination Parameters
   # obs. used (total)      326  
   first obs. used      1998-??-??  
   last obs. used      2013-01-16  
   # oppositions      12  
   planetary ephem.      DE403  
   condition code      0  
   fit RMS      0.53  
   data source      MPC:mpn  
   producer      MPCLINUX  

Additional Information
 T_jup = 3.145 

Ephemeris | Orbit Diagram | Orbital Elements | Physical Parameters | Discovery Circumstances ]

Physical Parameter Table
Parameter Symbol Value Units Sigma Reference Notes
absolute magnitude H 13.8 mag n/a MPO250855  

73511 Lovas           Discovered 2002 Dec. 25 by K. Sárneczky at Piszkesteto.
Miklós Lovas (b. 1931) has been the most successful Hungarian discoverer working in astronomy. He discovered 42 supernovae, five comets and two minor planets in the course of the supernova search program at the Konkoly Observatory between 1964 and 1995.
NOTE: some special characters may not display properly (any characters within {} are an attempt to place the proper accent above a character)
Reference: 20041126/MPCPages.arcLast Updated: 2004-12-06

Alternate Designations
 2002 YD3 = 1999 JF92 
Ephemeris | Orbit Diagram | Orbital Elements | Physical Parameters | Discovery Circumstances ]
ABOUT SSD CREDITS/AWARDS PRIVACY/COPYRIGHT GLOSSARY LINKS
FirstGov 2013-Jun-19 18:59 UT
(server date/time)  
NASA Home Page
Site Manager:   Donald K. Yeomans
Webmaster  Alan B. Chamberlin